Total_Precipitation_Accumulation
0.28 0.41 0.90 1.10 1.23 1.22 1.09 0.96 0.90 0.90 0.92 0.95 0.97 0.98 0.92 0.93 0.95 0.88 0.86 0.87 0.94 1.05 1.14 1.15 1.10 0.97 0.84 0.80 0.73 0.65 0.61 0.58 0.56 0.52 0.46 0.55 0.67 0.68 0.57 0.56 0.66 0.66 0.83
0.27 0.40 0.82 1.04 1.17 1.10 1.03 0.95 0.87 0.85 0.89 0.98 1.08 1.10 1.01 0.98 0.96 0.92 0.87 0.90 0.96 1.11 1.27 1.24 1.11 0.94 0.71 0.59 0.55 0.52 0.48 0.39 0.34 0.24 0.18 0.25 0.43 0.58 0.59 0.55 0.61 0.71 0.83
0.25 0.35 0.69 1.01 1.13 1.12 1.10 1.02 0.93 0.86 0.91 1.02 1.15 1.15 1.05 0.94 0.92 0.94 0.89 0.90 0.95 1.07 1.15 1.11 0.98 0.81 0.64 0.55 0.48 0.45 0.39 0.30 0.22 0.13 0.15 0.22 0.34 0.56 0.57 0.61 0.71 0.77 0.85
0.28 0.35 0.61 1.06 1.17 1.15 1.11 1.07 1.01 0.95 0.93 1.00 1.12 1.06 1.02 0.98 0.98 0.92 0.92 0.94 0.97 0.95 0.90 0.88 0.80 0.70 0.57 0.49 0.46 0.44 0.38 0.29 0.18 0.14 0.24 0.33 0.37 0.63 0.70 0.71 0.80 0.79 0.80
0.35 0.42 0.71 1.11 1.24 1.19 1.15 1.08 1.09 1.10 1.06 1.05 1.05 1.04 1.01 0.96 1.01 0.98 0.92 0.92 0.90 0.90 0.82 0.75 0.67 0.59 0.50 0.46 0.43 0.43 0.36 0.27 0.17 0.17 0.27 0.38 0.54 0.87 0.91 0.82 0.83 0.76 0.71
0.43 0.61 0.88 1.17 1.28 1.26 1.21 1.16 1.17 1.21 1.25 1.19 1.14 1.10 1.11 1.09 1.10 1.05 0.94 0.83 0.82 0.82 0.80 0.71 0.61 0.56 0.48 0.42 0.43 0.43 0.38 0.25 0.16 0.22 0.28 0.37 0.59 1.00 1.02 0.92 0.89 0.88 0.84
0.51 0.75 1.05 1.31 1.37 1.33 1.28 1.26 1.30 1.36 1.40 1.37 1.31 1.27 1.22 1.24 1.20 1.10 0.95 0.83 0.83 0.81 0.81 0.77 0.65 0.58 0.53 0.47 0.49 0.48 0.35 0.22 0.19 0.25 0.34 0.43 0.70 1.02 1.05 0.99 1.03 1.02 1.00
0.78 1.02 1.30 1.53 1.50 1.37 1.28 1.23 1.25 1.38 1.43 1.37 1.30 1.33 1.34 1.28 1.22 1.13 0.98 0.90 0.90 0.92 0.94 0.87 0.77 0.66 0.59 0.53 0.50 0.46 0.32 0.23 0.22 0.23 0.30 0.41 0.74 1.04 1.11 1.04 1.07 1.10 1.08
1.30 1.48 1.58 1.65 1.58 1.54 1.38 1.24 1.20 1.26 1.35 1.37 1.30 1.25 1.27 1.28 1.30 1.20 1.09 1.04 1.01 1.04 1.00 0.91 0.82 0.76 0.68 0.59 0.48 0.37 0.28 0.25 0.23 0.21 0.22 0.34 0.67 1.05 1.21 1.18 1.20 1.26 1.19
1.79 1.91 1.95 1.91 1.79 1.67 1.54 1.33 1.20 1.22 1.26 1.30 1.29 1.15 1.05 1.12 1.21 1.14 1.01 1.04 1.04 1.04 0.95 0.87 0.84 0.83 0.75 0.65 0.47 0.32 0.28 0.27 0.22 0.23 0.27 0.40 0.76 1.16 1.33 1.30 1.32 1.32 1.26
2.17 2.22 2.31 2.27 2.10 1.96 1.73 1.40 1.31 1.32 1.33 1.27 1.23 1.08 1.06 1.10 1.11 1.02 0.94 0.89 0.89 0.91 0.88 0.86 0.86 0.80 0.73 0.67 0.50 0.36 0.32 0.29 0.24 0.25 0.30 0.52 0.90 1.21 1.34 1.30 1.33 1.25 1.15
2.33 2.39 2.44 2.47 2.43 2.32 2.08 1.77 1.62 1.48 1.44 1.31 1.18 1.15 1.09 1.11 1.16 1.06 1.02 0.91 0.83 0.81 0.80 0.85 0.87 0.83 0.72 0.64 0.55 0.41 0.35 0.33 0.33 0.30 0.34 0.57 0.91 1.21 1.35 1.31 1.26 1.20 1.09
2.50 2.59 2.61 2.70 2.64 2.51 2.26 1.96 1.77 1.68 1.61 1.51 1.35 1.27 1.20 1.22 1.22 1.24 1.20 1.11 0.96 0.83 0.84 0.83 0.80 0.68 0.64 0.60 0.59 0.46 0.37 0.35 0.38 0.36 0.40 0.54 0.83 1.21 1.41 1.39 1.29 1.24 1.14
2.64 2.61 2.69 2.80 2.78 2.63 2.39 2.19 1.92 1.81 1.78 1.73 1.59 1.51 1.47 1.38 1.33 1.26 1.17 1.14 1.12 0.95 0.93 0.90 0.75 0.63 0.61 0.56 0.57 0.54 0.47 0.44 0.42 0.43 0.44 0.52 0.75 1.09 1.30 1.34 1.31 1.29 1.29
2.59 2.68 2.81 2.79 2.75 2.74 2.64 2.37 2.09 1.96 1.88 1.85 1.89 1.75 1.65 1.55 1.48 1.46 1.32 1.22 1.14 1.11 1.08 1.05 0.94 0.84 0.76 0.69 0.64 0.60 0.56 0.51 0.47 0.47 0.47 0.46 0.55 0.81 1.11 1.29 1.42 1.43 1.43
2.32 2.60 2.79 2.82 2.77 2.71 2.73 2.62 2.29 1.98 1.94 1.93 1.92 1.94 1.89 1.78 1.67 1.60 1.51 1.44 1.32 1.24 1.20 1.17 1.06 1.09 1.07 0.96 0.83 0.73 0.65 0.59 0.53 0.49 0.47 0.48 0.53 0.63 0.89 1.18 1.36 1.49 1.64
2.07 2.35 2.62 2.85 2.89 2.75 2.70 2.76 2.68 2.35 2.07 1.90 1.87 1.91 1.96 1.89 1.80 1.73 1.70 1.58 1.40 1.35 1.37 1.36 1.30 1.28 1.23 1.13 1.00 0.93 0.85 0.77 0.69 0.62 0.56 0.53 0.56 0.62 0.78 1.03 1.24 1.42 1.68
1.93 2.14 2.37 2.52 2.75 2.77 2.69 2.68 2.73 2.60 2.38 2.16 1.96 1.89 1.87 1.83 1.84 1.84 1.80 1.77 1.62 1.57 1.58 1.53 1.46 1.41 1.31 1.22 1.12 1.06 0.99 0.93 0.87 0.86 0.81 0.71 0.67 0.62 0.73 0.98 1.14 1.33 1.59
1.80 2.05 2.34 2.33 2.47 2.73 2.93 2.85 2.70 2.62 2.45 2.31 2.12 1.91 1.82 1.88 1.93 1.90 1.77 1.75 1.79 1.70 1.65 1.66 1.62 1.53 1.45 1.40 1.34 1.24 1.15 1.08 1.00 0.98 1.00 0.94 0.87 0.80 0.76 0.88 1.02 1.12 1.37
1.80 1.99 2.28 2.32 2.43 2.66 2.96 3.02 2.93 2.76 2.53 2.43 2.22 1.96 1.83 1.82 1.94 1.90 1.79 1.79 1.86 1.81 1.67 1.61 1.58 1.57 1.51 1.55 1.55 1.44 1.35 1.25 1.19 1.12 1.07 1.06 1.03 0.96 0.89 0.85 0.86 0.92 1.10
1.91 1.96 2.14 2.30 2.41 2.54 2.68 2.67 2.59 2.61 2.60 2.53 2.37 2.20 2.07 1.98 1.99 2.01 1.91 1.91 1.93 1.87 1.78 1.79 1.81 1.73 1.63 1.63 1.64 1.49 1.40 1.36 1.26 1.19 1.14 1.04 0.99 0.99 0.99 0.96 0.87 0.83 0.88
1.81 1.89 2.09 2.27 2.35 2.35 2.49 2.65 2.58 2.65 2.74 2.79 2.72 2.51 2.33 2.24 2.18 2.11 2.12 2.16 2.12 2.03 1.95 1.91 1.93 1.92 1.80 1.77 1.78 1.74 1.58 1.52 1.35 1.15 1.11 1.03 0.99 0.98 0.98 1.03 1.01 0.90 0.82
1.69 1.91 2.04 2.15 2.29 2.35 2.58 3.00 2.96 2.86 2.81 2.85 2.87 2.77 2.57 2.45 2.39 2.28 2.21 2.30 2.30 2.18 2.09 2.02 1.97 1.94 1.98 1.95 1.87 1.96 1.74 1.47 1.32 1.21 1.11 1.05 1.02 1.03 1.02 1.04 1.06 1.02 0.92
1.49 1.76 2.05 2.18 2.34 2.54 2.79 3.02 3.05 2.81 2.66 2.63 2.67 2.76 2.77 2.54 2.47 2.45 2.41 2.38 2.41 2.38 2.22 2.14 2.09 2.06 2.08 2.06 1.99 1.81 1.69 1.48 1.40 1.29 1.17 1.14 1.11 1.05 1.03 1.04 1.06 1.08 1.08
1.35 1.53 1.79 2.08 2.22 2.50 2.73 2.88 3.05 2.85 2.57 2.62 2.63 2.61 2.71 2.64 2.46 2.43 2.39 2.32 2.28 2.31 2.35 2.31 2.17 2.12 2.06 1.96 1.89 1.77 1.67 1.48 1.31 1.31 1.18 1.08 1.12 1.07 1.02 1.00 1.06 1.10 1.12
1.18 1.31 1.48 1.71 1.86 2.03 2.27 2.52 2.74 2.78 2.71 2.62 2.49 2.46 2.51 2.50 2.45 2.41 2.41 2.30 2.18 2.12 2.13 2.23 2.25 2.14 2.07 1.97 1.86 1.80 1.71 1.61 1.44 1.40 1.36 1.14 1.11 1.08 1.06 1.04 1.01 1.04 1.08